Regional Weather Roundup
Issued by NWS

Home | Current Version | Previous Version | Text Only | Print | Product List | Glossary Off
Versions: 1 2 3 4 5 6 7 8 9 10 11 12 13 14 15 16 17 18 19 20 21 22 23 24 25 26 27 28 29 30 31 32 33 34 35 36 37 38 39 40 41 42 43 44 45 46 47 48 49 50

000
ASUS43 KMKX 171711
RWRWI

WISCONSIN REGIONAL WEATHER ROUNDUP
NATIONAL WEATHER SERVICE MILWAUKEE/SULLIVAN WI
1200 PM CDT THU AUG 17 2017

NOTE: "FAIR" INDICATES FEW OR NO CLOUDS BELOW 12,000 FEET WITH NO
SIGNIFICANT WEATHER AND/OR OBSTRUCTIONS TO VISIBILITY.

WIZ001-002-006>008-014>016-023>028-171800-
NORTHWEST WISCONSIN

CITY           SKY/WX    TMP DP  RH WIND       PRES   REMARKS
SUPERIOR ARPT  RAIN      63  62  99 N3        29.63R
ASHLAND        LGT RAIN  64  63  96 N8        29.58S
HAYWARD        HVY RAIN  65  63  93 N7        29.58S VSB 1
SIREN          LGT RAIN  63  62  96 N13       29.61R
CUMBERLAND     LGT RAIN  68  63  83 NW8       29.58S
RICE LAKE      CLOUDY    71  64  77 NW7       29.58R
CHETEK         CLOUDY    70  68  92 N8G16     29.56S
LADYSMITH      LGT RAIN  66  65  97 NE3       29.58S
EAU CLAIRE     CLOUDY    70  65  84 N14G26    29.54R
MENOMONIE      PTSUNNY   69  69  99 NW10G16   29.56R
NEW RICHMOND   CLOUDY    66  64  94 NW9G20    29.62R
OSCEOLA        CLOUDY    65  65 100 NW12G18   29.65R
$$

WIZ003>005-009-010-017-018-171800-
NORTH CENTRAL WISCONSIN

CITY           SKY/WX    TMP DP  RH WIND       PRES   REMARKS
MANITOWISH WTR CLOUDY    69  69 100 S6        29.58F
ARBOR VITAE    CLOUDY    69  66  90 S9        29.59S
WOODRUFF       CLOUDY    69  66  90 S9        29.59S
RHINELANDER    CLOUDY    71  65  81 S9        29.60F
EAGLE RIVER    CLOUDY    70  66  89 S6        29.59F
LAND O LAKES   CLOUDY    69  67  92 S8        29.61F
PHILLIPS       RAIN      67  66  95 S8        29.57F
TOMAHAWK         N/A     69  63  81 CALM      29.58F
MEDFORD        RAIN      65  64  96 S10       29.56F
MERRILL        CLOUDY    70  64  83 S10G17    29.59S
$$

WIZ029-030-035-036-043>047-171800-
CENTRAL WISCONSIN

CITY           SKY/WX    TMP DP  RH WIND       PRES   REMARKS
WAUSAU         CLOUDY    70  63  78 S22       29.57F
MOSINEE        LGT RAIN  70  64  83 S17G23    29.60F
MARSHFIELD     RAIN      67  64  90 S20       29.57F FOG
STEVENS POINT  CLOUDY    69  64  84 S9G24     29.61F
WAUPACA        CLOUDY    74  68  81 SW12      29.63F
WAUTOMA        CLOUDY    74  65  73 SW15G23   29.63F
WISC RAPIDS    LGT RAIN  70  65  84 S15G23    29.61F
CAMP DOUGLAS   LGT RAIN  72  64  78 SW13      29.61S
$$

WIZ011>013-019>022-031-037>040-048>050-171800-
NORTHEAST WISCONSIN

CITY           SKY/WX    TMP DP  RH WIND       PRES   REMARKS
ANTIGO         CLOUDY    70  65  84 SW13G24   29.62F
SHAWANO        PTSUNNY   78  64  62 SW14G25   29.61S HX  80
OCONTO         MOSUNNY   79  68  69 S13G20    29.59F HX  82
STURGEON BAY   PTSUNNY   76  71  85 S18       29.62F
GREEN BAY      LGT RAIN  74  70  87 SW8       29.62F
MANITOWOC      PTSUNNY   79  71  76 S15       29.65F HX  82
APPLETON       PTSUNNY   75  63  64 SW15      29.63F
CLINTONVILLE   CLOUDY    75  63  64 SW15G21   29.62F
OSHKOSH        PTSUNNY   78  65  63 SW18      29.64F HX  80
$$

WIZ032>034-041-042-053>061-171800-
SOUTHWEST WISCONSIN

CITY           SKY/WX    TMP DP  RH WIND       PRES   REMARKS
LA CROSSE      CLOUDY    73  65  75 SW13G22   29.62R
SPARTA         CLOUDY    70  64  82 SW10G22   29.62R
VIROQUA        CLOUDY    67  67 100 SW13G23   29.66S
BOSCOBEL       CLOUDY    72  67  84 SW9       29.68R
PRAIRIE DU CHI CLOUDY    74  62  65 W17G26    29.69R
PLATTEVILLE    PTSUNNY   73  68  84 SW14G21   29.73S
$$

WIZ056-057-062-063-064-067-068-171800-
SOUTH CENTRAL WISCONSIN

CITY           SKY/WX    TMP DP  RH WIND       PRES   REMARKS
REEDSBURG      CLOUDY    71  66  85 S15G21    29.66S
BARABOO/DELLS  CLOUDY    72  63  72 SW14G21   29.65F
LONE ROCK      CLOUDY    76  66  71 SW15G24   29.66F
MINERAL POINT  CLOUDY    73  68  83 SW14G22   29.72S
MADISON        PTSUNNY   73  65  75 VRB7G22   29.70R
MIDDLETON      CLOUDY    72  65  78 SW18      29.71R
WATERTOWN      PTSUNNY   78  67  69 SW23G30   29.68F
MONROE         PTSUNNY   70  63  78 SW18G25   29.74S
JANESVILLE     PTSUNNY   79  64  61 W22G28    29.71R HX  81
$$

WIZ051-052-058>065-066-070>072-171800-
SOUTHEAST WISCONSIN

CITY           SKY/WX    TMP DP  RH WIND       PRES   REMARKS
MILWAUKEE      PTSUNNY   78  69  73 SW15      29.70F HX  80
WAUKESHA       PTSUNNY   75  66  73 SW10G17   29.71F
MILWAUKEE/TIMM PTSUNNY   79  64  61 S14G22    29.70F HX  81
RACINE         CLOUDY    78  72  81 SW10      29.72F HX  80
KENOSHA        MOSUNNY   79  69  71 SW14G24   29.72F HX  81
FOND DU LAC    MOSUNNY   77  63  61 SW18G25   29.65F
SHEBOYGAN      PTSUNNY   79  70  74 S16G25    29.66F HX  82
WEST BEND      PTSUNNY   77  68  73 SW15G24   29.67F
JUNEAU         CLOUDY    74  65  71 SW17G30   29.70R
$$

LSZ147-162-171800-
LAKE SUPERIOR

STATION/POSITION TIME  TEMP    WIND        PRES    WAVE
                       AIR SEA DIR/SP/G            HT/PER
                 (UTC) (F)     (DEG/KT/KT) (MB)    (FT/S)
W MID LAKE BUOY  1650   60 60   40/ 16/ 19 1001.7F   4/ 5
DEVILS ISLAND    1700   60      40/ 23/ 25 1001.8F
SAXON HARBOR     1640   65      40/  9/ 10 1001.0S
$$

LMZ867-665-643>646-171800-
LAKE MICHIGAN

STATION/POSITION TIME  TEMP    WIND        PRES    WAVE
                       AIR SEA DIR/SP/G            HT/PER
                 (UTC) (F)     (DEG/KT/KT) (MB)    (FT/S)
S GREEN BAY BUOY 1700   75 72  190/ 12/ 16 1002.4
N MID LAKE BUOY  1650   69 67  170/ 16/ 17 1004.5F   4/ 5
NORTHPORT PIER   1640   70     150/ 11/ 18 1003.7F
KEWAUNEE LAKESHO 1648   71     180/ 12/ 17 1003.3F
SHEBOYGAN LAKESH 1700   71     160/ 16/ 18 1003.8F
PORT WASHINGTON  1640   81     210/ 11/ 14 1005.8F
ATWATER BUOY     1609   76 71  220/ 12/ 16 1006.1F
MILWAUKEE LAKESH 1650   77     220/ 15/ 18   N/A
S MID LAKE BUOY  1650   72 72  230/ 17/ 19 1006.6S   4/ 5
KENOSHA   LAKESH 1700   79     210/ 10/ 15 1006.1
$$

TC  - TEMPERATURE IN CELSIUS
VSB - VISIBILITY IN STATUTE MILES
WCI - WIND CHILL INDEX
HX  - HEAT INDEX




USA.gov is the U.S. government's official web portal to all federal, state and local government web resources and services.